Temperature
28 29 29 29 30 30 30 29 29 28 29 28 28 27 27 26 26 25 25 25 25 24 24 23 23 23 22 22 21 21 20 20 19 19 19 19 18 19 18 18 18 18 18 18
26 28 29 28 29 29 29 29 29 29 28 28 27 26 26 25 25 25 24 24 23 23 22 22 22 21 21 21 21 20 20 19 19 19 18 18 18 18 18 18 18 18 18 17
24 26 27 27 28 28 28 29 29 28 27 27 26 26 25 25 24 24 23 23 22 22 21 21 21 20 20 20 20 19 19 19 18 18 18 18 18 18 18 17 17 17 17 17
24 24 24 26 29 29 28 28 28 27 27 26 26 25 25 24 24 23 23 22 21 21 20 20 20 20 19 19 19 19 19 18 18 18 18 18 17 17 17 17 17 17 17 17
23 24 24 26 27 28 27 26 27 26 26 25 25 25 24 24 23 22 22 21 20 20 20 20 19 19 19 19 19 18 18 18 18 18 17 17 17 17 17 17 17 17 17 17
23 22 23 25 26 27 26 25 25 25 25 24 24 24 23 22 22 21 21 20 20 19 19 19 19 18 18 18 18 18 18 17 17 17 17 17 17 17 17 17 17 17 17 17
22 22 23 25 26 26 24 23 23 24 23 23 23 22 22 21 21 20 20 19 19 19 18 18 18 18 18 17 17 17 17 17 17 17 17 17 17 17 16 16 16 17 17 17
22 22 22 23 24 23 22 22 22 22 22 22 21 21 21 20 20 19 19 18 18 18 17 17 17 17 17 17 17 16 16 16 16 16 16 16 16 16 16 16 16 16 16 16
22 22 22 22 22 21 21 21 21 21 21 21 20 20 20 19 18 18 18 18 18 17 17 17 17 17 16 16 16 16 16 16 16 16 16 16 16 16 16 16 16 16 16 16
21 22 21 21 21 21 21 20 20 20 20 20 20 20 19 18 18 18 18 18 17 17 17 16 16 16 16 16 16 16 16 16 16 16 16 16 16 15 15 16 16 16 16 16
20 21 21 21 20 20 20 20 20 20 20 19 19 19 19 18 18 17 17 17 17 16 16 16 16 15 15 15 16 15 15 15 15 15 15 15 15 15 15 16 16 16 16 16
19 20 20 19 19 19 19 19 19 19 19 19 19 18 18 17 17 17 17 16 16 16 16 15 15 15 15 15 15 15 15 15 15 15 15 15 15 15 15 15 15 15 15 15
19 19 18 19 19 19 18 18 18 18 18 18 18 17 17 17 16 16 16 16 16 15 15 15 15 15 15 15 14 15 15 15 15 15 15 15 15 15 15 15 15 15 15 15
18 18 18 18 18 18 18 18 18 18 17 17 17 17 16 16 16 16 15 15 15 15 15 15 14 14 14 14 14 14 14 14 14 14 15 15 15 14 14 14 14 14 14 14
17 17 17 17 17 17 17 17 17 17 17 17 16 16 16 16 15 15 15 15 15 14 14 14 14 14 14 14 14 14 14 14 14 14 14 14 14 14 14 14 14 14 14 13
17 17 17 17 16 16 16 17 16 16 16 16 16 15 15 15 15 14 14 14 14 14 14 13 13 13 13 13 13 13 13 14 14 13 13 13 14 13 13 13 13 13 13 13
16 17 16 16 16 16 16 16 16 16 16 15 15 15 15 14 14 14 14 13 13 13 13 13 13 13 13 13 12 12 13 13 13 13 13 13 13 13 13 13 13 12 12 12
16 16 16 16 16 16 15 15 15 15 15 15 15 14 14 14 14 13 13 13 13 13 13 12 12 12 12 12 12 12 12 12 12 12 12 12 12 12 12 12 12 12 12 12
16 16 16 16 16 15 15 15 14 14 14 14 14 14 13 13 13 13 13 12 12 12 12 12 12 12 12 12 12 12 12 12 12 12 12 12 12 12 12 12 12 12 11 11
15 15 15 15 15 15 15 14 14 14 14 14 14 13 13 13 12 12 12 12 12 12 12 12 12 11 11 12 12 12 12 12 12 12 12 12 12 12 12 11 11 11 11 11
15 15 15 15 15 14 14 14 14 14 13 13 13 13 12 12 12 12 12 11 11 11 11 11 11 11 11 11 12 12 11 11 11 12 11 11 11 11 11 11 11 11 10 10
14 14 14 14 14 14 14 14 13 13 13 13 13 12 12 12 12 12 12 11 11 11 11 11 11 11 11 11 11 11 11 11 11 11 11 11 11 11 11 11 10 10 10 10
14 14 14 14 14 13 13 13 13 13 13 13 12 12 12 12 12 12 11 11 11 11 11 11 11 11 11 11 11 11 11 11 11 11 11 11 11 11 11 10 10 10 10 10
13 13 13 13 13 13 13 13 13 13 12 12 12 12 12 12 12 12 12 12 11 11 11 11 11 11 11 11 11 11 11 11 11 11 11 11 11 10 10 10 10 10 10 9
13 13 13 13 13 13 13 13 13 12 12 12 12 12 12 12 12 12 12 11 11 11 11 11 11 11 11 11 11 11 10 10 10 10 10 10 10 10 10 10 9 9 9 9
13 13 13 13 13 13 13 13 12 12 13 12 12 12 12 12 12 12 12 11 11 11 11 11 11 11 11 11 11 11 10 10 10 10 10 10 10 10 9 9 9 9 9 9
13 13 13 13 13 13 13 13 12 12 12 12 12 12 12 12 12 12 11 11 11 11 11 11 11 11 11 11 11 10 10 10 10 10 10 10 9 9 9 9 9 8 8 8
Wind_Speed
17 18 17 16 15 14 14 14 15 14 13 8 1 1 2 2 3 3 3 3 2 3 4 5 5 5 5 5 5 6 7 7 6 5 5 4 4 4 4 5 6 5 5 5
17 18 19 18 17 16 15 14 14 14 12 6 3 2 2 2 2 3 2 2 3 3 4 4 4 4 4 4 4 5 6 6 6 5 5 5 4 4 5 5 5 5 5 5
15 17 18 19 16 16 14 13 13 13 8 3 4 2 1 1 2 2 2 1 2 3 3 2 3 4 3 3 4 4 5 5 5 6 5 5 6 5 4 4 5 5 5 5
13 15 18 13 11 12 12 12 10 7 6 4 4 2 1 2 1 0 1 2 1 1 2 2 2 3 3 3 4 4 5 5 5 5 5 5 5 5 4 4 4 4 5 5
12 15 15 14 10 10 10 10 7 7 6 5 4 4 2 2 2 1 1 1 1 1 1 1 2 3 3 4 3 4 4 4 5 5 5 5 4 3 3 3 4 4 4 4
13 15 15 9 7 7 8 9 6 4 3 4 3 4 1 3 3 2 2 3 2 1 1 2 2 2 4 4 4 3 3 4 4 5 5 5 5 4 3 3 4 4 3 3
15 16 13 7 8 7 7 4 7 6 5 5 3 3 1 2 3 4 3 3 2 2 2 2 1 0 2 2 3 2 2 3 3 4 5 5 5 4 4 5 4 4 4 5
12 14 10 7 5 4 4 5 5 5 5 5 4 3 2 2 2 2 2 3 2 2 2 2 1 0 1 1 1 1 1 2 3 3 5 5 4 4 5 5 5 6 6 6
7 5 1 3 3 4 5 5 5 4 4 3 2 2 2 2 2 1 1 2 2 2 3 2 2 1 0 0 1 1 1 2 3 4 4 4 5 5 6 6 6 6 6 6
7 5 5 5 4 4 5 5 5 4 2 2 2 1 1 1 1 1 1 2 2 2 2 2 2 2 1 0 1 1 2 3 3 4 4 4 4 5 6 5 5 5 5 5
10 9 8 6 5 5 5 4 4 4 3 2 2 2 0 0 1 1 1 1 1 1 1 0 0 1 1 1 1 1 3 3 4 5 5 4 5 5 5 3 3 4 3 3
9 7 7 7 6 6 6 5 4 4 5 4 3 2 2 1 1 1 1 1 1 1 1 1 1 2 2 2 2 3 3 4 5 4 4 4 4 3 3 5 6 6 5 5
9 9 8 8 8 7 6 7 6 4 4 5 4 3 2 1 1 1 1 1 1 1 1 1 1 2 3 2 2 3 4 4 5 4 4 4 4 4 3 3 3 4 6 7
7 7 9 9 8 8 8 8 6 4 4 4 3 2 2 2 1 2 3 3 3 2 2 2 2 3 3 3 3 3 5 5 5 4 4 4 3 4 4 3 3 3 4 7
9 9 9 8 6 7 8 7 6 6 4 3 2 2 2 2 2 3 3 3 3 3 3 3 3 3 3 4 4 4 5 4 3 4 4 4 4 4 4 4 3 3 2 3
10 10 9 7 7 8 8 6 6 5 4 2 2 2 2 2 2 3 3 3 3 4 3 3 4 4 4 4 5 4 4 4 3 4 5 4 4 4 4 3 4 3 3 3
10 10 9 7 7 7 6 5 6 5 4 3 2 2 3 2 2 2 3 4 3 3 3 3 3 3 4 4 5 5 4 3 4 4 4 4 4 4 3 3 3 3 3 3
10 10 9 8 7 6 5 4 5 5 4 3 3 3 3 2 3 3 3 3 4 4 4 4 4 4 4 4 4 5 5 4 3 3 3 3 4 3 3 3 3 4 3 3
8 8 8 7 6 5 4 3 4 5 3 3 3 3 3 3 3 3 3 3 4 4 3 3 4 5 4 4 5 4 5 5 4 3 3 3 3 3 2 3 3 4 3 3
6 5 5 5 4 3 2 2 4 4 2 2 2 3 3 3 3 3 3 3 3 3 3 3 4 4 4 3 5 5 5 5 4 3 3 3 2 2 2 2 2 3 3 3
5 5 4 3 3 3 2 2 2 2 2 2 2 3 3 3 3 3 3 3 2 2 3 3 3 3 4 5 6 5 4 3 4 3 3 2 2 2 2 2 2 2 2 3
4 3 3 2 2 3 2 1 1 2 2 2 2 3 3 3 3 2 2 2 1 2 3 3 2 3 4 6 5 4 3 3 3 2 2 2 2 2 2 2 2 2 2 2
2 2 2 2 2 2 2 2 1 1 1 2 2 3 3 2 2 2 2 1 1 2 3 2 1 3 5 4 4 4 4 3 3 2 2 2 2 2 2 2 2 2 2 2
1 1 1 1 0 0 0 1 1 1 1 1 2 2 2 2 2 1 1 2 2 2 2 0 1 3 4 2 2 3 3 3 2 2 2 2 2 2 2 2 2 2 2 2
2 1 1 1 1 1 1 1 1 1 2 2 2 1 1 1 1 1 0 1 2 2 2 2 4 4 4 3 2 2 2 3 3 3 3 2 2 2 2 3 3 2 2 2
1 1 1 1 1 1 1 1 1 2 2 2 2 1 1 1 1 0 0 1 2 2 2 2 2 3 3 2 1 1 1 1 1 1 1 2 2 2 2 3 3 2 2 2
1 0 0 1 1 1 1 1 1 2 2 1 2 2 2 2 1 1 1 1 1 1 1 2 2 2 1 1 1 1 1 1 1 2 2 2 2 2 3 3 2 2 2 2
Wind_Direction
280 282 278 278 273 265 262 263 266 271 276 285 282 310 336 350 357 4 37 71 83 86 84 98 108 115 125 137 144 159 162 172 177 187 191 189 192 194 198 202 206 199 205 215
283 279 277 276 276 275 270 267 265 269 272 277 302 350 20 344 341 341 4 59 71 90 99 106 122 128 128 132 138 149 163 174 170 176 186 189 191 191 197 203 208 202 206 215
278 282 280 268 269 271 274 275 276 274 283 288 294 284 250 253 260 305 333 22 51 69 87 116 138 134 136 148 154 161 172 177 180 183 189 190 200 192 194 200 208 213 215 214
274 276 264 267 279 276 271 278 283 281 285 282 286 275 269 252 256 200 345 343 33 73 103 113 127 139 149 161 167 172 173 186 189 192 196 198 204 201 201 209 217 220 225 219
268 267 264 268 276 281 271 274 296 296 290 286 278 267 236 85 72 75 119 73 49 92 75 91 129 156 174 183 188 185 178 191 193 195 201 198 201 205 204 214 222 227 229 227
257 263 263 279 304 311 289 265 322 320 320 298 276 263 277 50 39 27 66 83 73 55 57 68 95 166 184 187 191 198 197 198 193 192 197 199 196 197 212 216 222 232 238 239
252 259 262 296 313 300 268 284 342 350 359 337 329 337 14 46 53 60 53 62 66 61 61 53 32 45 200 206 208 219 212 205 199 201 206 206 195 193 207 222 224 228 236 233
248 253 258 331 316 311 332 346 341 342 353 2 10 28 41 25 35 62 69 58 50 62 59 53 39 60 186 204 228 250 241 230 208 204 220 216 199 205 213 222 226 230 233 234
268 263 325 350 344 338 332 328 325 317 333 344 352 355 30 17 342 312 93 87 75 84 69 59 63 89 30 186 177 218 266 252 220 213 214 212 209 217 224 225 229 230 226 231
282 271 294 300 305 307 312 310 312 321 324 308 316 321 49 11 324 334 41 61 63 74 77 50 26 12 355 298 188 174 257 264 234 228 220 213 217 227 229 229 233 231 233 235
277 283 290 290 311 311 313 318 328 326 316 298 298 298 3 157 287 346 33 35 61 78 119 144 345 321 310 309 265 223 237 250 242 236 225 216 219 234 235 230 236 240 246 248
279 305 298 294 302 301 296 293 298 296 303 297 279 285 285 287 291 350 2 13 8 347 340 333 306 302 297 300 289 267 256 257 256 243 224 225 226 245 241 231 221 216 215 219
283 301 302 301 299 297 285 284 277 269 275 282 287 279 280 292 303 312 314 318 304 316 308 306 316 308 299 285 279 274 275 276 272 260 247 240 232 231 244 258 250 238 231 221
287 289 288 288 292 301 298 288 281 273 278 282 284 282 285 287 295 301 295 293 286 282 289 293 305 303 307 305 295 288 283 271 263 262 262 258 255 254 243 235 232 242 241 220
275 272 271 273 281 291 288 281 276 270 264 274 277 280 288 293 298 301 294 292 297 294 299 307 309 307 310 309 309 298 286 281 275 288 287 275 263 259 258 254 248 242 232 229
271 268 268 275 279 278 275 270 268 269 261 261 272 275 282 289 300 315 313 309 305 300 314 315 308 315 325 320 309 292 273 266 267 276 279 280 272 261 259 259 253 247 244 241
264 263 262 262 269 274 274 280 280 278 274 258 257 267 272 280 303 314 315 315 316 315 315 313 320 326 317 307 303 298 292 273 247 263 275 286 283 276 270 266 262 252 247 229
264 260 257 256 260 264 268 272 280 283 279 283 274 272 278 282 289 298 304 313 315 324 336 349 345 318 306 308 306 301 291 294 289 282 279 279 282 275 270 269 267 265 259 233
268 263 257 259 260 260 260 266 270 267 263 274 272 272 281 284 291 296 305 310 310 310 325 334 313 303 302 309 303 284 289 290 285 274 271 258 262 278 277 268 267 262 259 258
279 270 264 269 267 259 260 263 268 269 274 282 293 299 296 291 293 291 288 291 304 313 323 323 304 302 298 301 294 292 294 295 292 283 274 273 275 281 288 288 286 286 281 267
282 276 271 279 287 275 273 271 269 277 288 279 282 288 282 280 284 286 282 278 298 316 303 289 294 308 311 310 287 295 303 302 295 289 288 288 289 290 291 290 295 301 297 288
310 317 318 310 312 291 274 256 269 285 280 280 286 284 272 266 259 253 261 270 269 306 296 291 308 333 317 304 300 303 299 300 307 315 315 314 308 299 288 277 276 284 280 272
332 347 348 331 322 331 359 6 355 330 299 293 288 277 273 281 278 264 265 246 226 270 287 314 348 311 303 299 308 315 324 331 339 339 337 332 319 312 307 295 288 279 271 280
339 357 351 309 311 32 6 331 321 324 306 297 287 283 277 270 271 257 201 156 182 231 290 16 255 295 290 291 303 315 326 327 328 328 326 323 322 328 331 327 313 308 297 288
341 329 356 341 325 293 229 234 251 282 280 276 293 301 305 289 278 290 246 207 173 214 270 236 219 240 261 281 291 300 310 322 325 339 351 344 346 356 353 345 347 344 342 335
306 303 4 335 339 311 311 342 318 304 316 330 341 335 316 325 327 313 249 238 241 241 265 278 246 238 255 283 295 299 290 283 303 296 323 331 341 345 346 343 340 346 341 340
277 265 348 324 328 317 325 317 285 295 312 336 338 339 341 343 342 323 312 300 297 297 300 301 295 279 297 342 351 339 322 330 351 9 15 8 0 354 351 354 1 7 9 17
Height
1451 1444 1441 1441 1439 1437 1440 1442 1449 1448 1446 1445 1444 1446 1448 1450 1451 1453 1454 1455 1456 1458 1460 1462 1464 1467 1470 1473 1475 1477 1479 1482 1484 1486 1488 1489 1491 1492 1494 1495 1496 1497 1499 1501
1457 1447 1442 1442 1438 1437 1437 1438 1441 1442 1443 1442 1445 1447 1450 1453 1453 1455 1455 1456 1457 1458 1459 1461 1463 1465 1468 1469 1472 1474 1476 1479 1481 1483 1485 1486 1487 1489 1490 1492 1493 1494 1496 1497
1464 1451 1447 1450 1440 1438 1437 1435 1438 1443 1444 1443 1446 1448 1450 1452 1454 1455 1456 1456 1457 1458 1459 1461 1462 1464 1465 1467 1469 1472 1474 1476 1478 1480 1482 1483 1485 1486 1487 1488 1490 1491 1492 1493
1463 1461 1468 1447 1433 1432 1435 1436 1436 1438 1441 1443 1446 1448 1450 1453 1454 1454 1456 1456 1456 1458 1459 1460 1462 1463 1465 1466 1468 1470 1471 1473 1475 1478 1479 1481 1482 1483 1484 1485 1487 1488 1489 1490
1464 1463 1455 1441 1434 1434 1438 1440 1437 1439 1440 1443 1445 1446 1450 1452 1454 1455 1456 1456 1456 1457 1458 1459 1460 1461 1463 1465 1466 1467 1468 1470 1472 1474 1476 1477 1478 1479 1480 1481 1483 1483 1485 1486
1462 1466 1463 1447 1437 1436 1438 1444 1441 1441 1442 1443 1444 1447 1449 1451 1453 1454 1455 1455 1455 1455 1457 1457 1458 1459 1461 1463 1464 1464 1466 1467 1469 1471 1472 1473 1474 1475 1476 1477 1478 1480 1481 1482
1460 1460 1451 1442 1439 1439 1451 1451 1446 1445 1445 1445 1446 1448 1450 1452 1453 1454 1454 1454 1454 1455 1455 1456 1456 1457 1458 1459 1460 1461 1463 1465 1466 1467 1468 1470 1470 1472 1473 1474 1475 1475 1476 1478
1456 1460 1457 1445 1443 1447 1450 1448 1447 1447 1447 1448 1448 1449 1450 1452 1453 1453 1453 1452 1453 1453 1453 1453 1453 1454 1455 1456 1458 1459 1460 1461 1462 1462 1465 1467 1468 1469 1470 1471 1472 1472 1473 1474
1450 1452 1449 1448 1448 1449 1449 1449 1448 1448 1448 1449 1449 1449 1450 1452 1452 1452 1451 1451 1452 1452 1452 1452 1452 1452 1453 1454 1455 1456 1458 1457 1458 1460 1461 1463 1464 1465 1466 1467 1468 1469 1470 1471
1448 1446 1447 1447 1448 1449 1449 1449 1448 1447 1448 1449 1449 1450 1450 1451 1451 1451 1450 1450 1451 1451 1451 1452 1452 1452 1452 1453 1453 1453 1454 1455 1456 1457 1458 1459 1460 1462 1463 1463 1464 1465 1466 1467
1449 1447 1447 1447 1448 1449 1449 1448 1448 1448 1448 1449 1449 1449 1449 1450 1450 1450 1450 1450 1450 1450 1451 1451 1451 1451 1451 1451 1451 1451 1452 1453 1453 1454 1454 1456 1457 1458 1459 1459 1460 1461 1461 1462
1449 1449 1449 1449 1449 1449 1449 1448 1448 1448 1448 1448 1448 1448 1448 1449 1449 1449 1449 1449 1449 1450 1450 1450 1449 1449 1449 1449 1449 1449 1450 1450 1451 1451 1451 1452 1453 1454 1454 1455 1456 1456 1456 1457
1449 1448 1448 1448 1448 1447 1447 1447 1447 1447 1447 1448 1447 1448 1447 1447 1447 1447 1448 1448 1448 1448 1448 1447 1447 1447 1446 1446 1447 1446 1446 1446 1447 1447 1448 1448 1449 1449 1449 1450 1451 1451 1451 1452
1447 1447 1446 1446 1447 1446 1445 1445 1445 1445 1446 1446 1446 1446 1446 1446 1446 1446 1446 1446 1445 1445 1444 1444 1444 1444 1444 1444 1444 1444 1443 1444 1444 1444 1444 1445 1445 1445 1445 1445 1445 1446 1446 1447
1445 1445 1444 1444 1443 1444 1443 1443 1443 1443 1443 1444 1444 1444 1444 1444 1444 1444 1444 1444 1443 1442 1442 1442 1441 1441 1441 1440 1440 1440 1440 1440 1440 1440 1441 1441 1441 1441 1441 1441 1441 1441 1442 1442
1441 1442 1442 1442 1442 1442 1442 1441 1441 1441 1442 1442 1443 1443 1443 1443 1443 1442 1442 1442 1441 1440 1440 1439 1439 1438 1438 1437 1436 1436 1436 1437 1436 1436 1437 1437 1436 1436 1436 1436 1437 1437 1437 1437
1438 1438 1439 1439 1439 1439 1439 1439 1439 1439 1440 1440 1441 1441 1441 1441 1440 1440 1440 1440 1439 1438 1438 1437 1437 1436 1435 1434 1434 1434 1433 1433 1433 1432 1432 1432 1432 1432 1432 1432 1432 1432 1432 1432
1435 1435 1436 1436 1437 1437 1436 1437 1438 1438 1438 1438 1439 1439 1439 1439 1438 1438 1438 1438 1437 1436 1435 1435 1434 1433 1433 1432 1431 1431 1430 1429 1430 1429 1429 1429 1428 1428 1428 1428 1428 1428 1428 1429
1431 1431 1432 1433 1434 1434 1434 1435 1435 1435 1435 1436 1436 1437 1437 1437 1437 1437 1436 1435 1434 1433 1432 1432 1431 1431 1430 1430 1430 1429 1428 1427 1426 1426 1426 1425 1425 1424 1424 1424 1424 1424 1424 1424
1428 1429 1430 1430 1431 1431 1431 1432 1432 1432 1433 1433 1434 1434 1434 1434 1434 1434 1433 1433 1432 1431 1430 1430 1429 1428 1428 1428 1427 1426 1426 1424 1423 1422 1422 1422 1422 1421 1421 1421 1420 1420 1420 1420
1427 1427 1427 1428 1428 1429 1430 1430 1431 1431 1431 1432 1432 1432 1432 1432 1432 1431 1431 1430 1430 1429 1428 1427 1427 1426 1426 1425 1424 1424 1423 1421 1420 1419 1419 1418 1418 1417 1418 1417 1417 1416 1416 1415
1426 1426 1427 1427 1428 1428 1429 1429 1429 1429 1429 1430 1430 1430 1430 1430 1430 1429 1429 1429 1428 1427 1426 1426 1425 1424 1424 1423 1422 1422 1421 1419 1418 1417 1417 1417 1416 1415 1415 1414 1414 1413 1412 1412
1426 1426 1426 1427 1427 1427 1427 1427 1427 1427 1428 1428 1428 1428 1428 1428 1428 1427 1427 1427 1426 1425 1425 1424 1423 1422 1421 1421 1420 1419 1418 1417 1416 1416 1415 1415 1414 1413 1412 1412 1411 1410 1410 1409
1425 1425 1426 1426 1426 1426 1426 1426 1426 1426 1426 1426 1426 1426 1426 1425 1425 1425 1425 1425 1424 1424 1423 1423 1422 1421 1420 1419 1418 1418 1417 1416 1415 1414 1414 1413 1412 1411 1410 1409 1409 1408 1408 1407
1426 1425 1426 1426 1425 1425 1425 1424 1425 1425 1425 1425 1425 1425 1424 1424 1424 1424 1424 1423 1423 1422 1422 1421 1420 1420 1419 1418 1417 1416 1416 1415 1414 1413 1413 1412 1411 1410 1409 1408 1407 1407 1406 1406
1425 1425 1425 1425 1425 1424 1424 1424 1424 1424 1424 1424 1424 1424 1423 1423 1423 1422 1422 1422 1421 1421 1421 1420 1419 1419 1418 1418 1417 1416 1415 1414 1413 1412 1412 1411 1410 1409 1408 1407 1406 1405 1405 1404
1426 1425 1425 1425 1425 1424 1424 1424 1424 1424 1424 1423 1423 1423 1423 1422 1421 1421 1421 1420 1420 1420 1419 1419 1419 1418 1418 1417 1416 1415 1414 1413 1413 1412 1411 1410 1409 1408 1407 1406 1404 1403 1402 1401